Location: Lake Almanor
(40.2485°N, 121.1442°W)
Time: 07:25:11
(UTC-08:00)

STARLINK-1116 - Pass Details

Date: 04 February 2020
Orbit: 348 x 351 km, 53.0° (Epoch: 18 February)

Event Time Altitude Azimuth Distance (km) Brightness Sun altitude
Rises 16:48:50 0° 313° (NW) 2,158 6.9 5.7°
Reaches altitude 10° 16:50:54 10° 320° (NW) 1,313 5.8 5.4°
Maximum altitude 16:53:44 45° 35° (NE) 488 3.1 4.9°
Drops below altitude 10° 16:56:32 10° 111° (ESE) 1,306 5.2 4.4°
Enters shadow 17:04:55 -17° 124° (ESE) 4,749 8.1 3.0°
Exits shadow 17:30:42 -69° 128° (SE) 12,303 10.3 -1.6°
Sets 18:32:50 0° 170° (S) 2,137 6.7 -13.0°
